| time (UTC) | temp F | wind direction | speed MPH | gust MPH | rain 1hr in | rain 24hr in | rain mn in | humidity % | barometer mb |
| 20260502205532 | 56 | 305 | 7.0 | 13.0 | 0.00 | 0.00 | 0.00 | 40 | 1015.8 |
| 20260502205030 | 55 | 236 | 3.0 | 9.0 | 0.00 | 0.00 | 0.00 | 38 | 1016.0 |
| 20260502204526 | 55 | 241 | 10.0 | 14.0 | 0.00 | 0.00 | 0.00 | 39 | 1016.0 |
| 20260502204025 | 55 | 229 | 5.0 | 15.0 | 0.00 | 0.00 | 0.00 | 39 | 1016.2 |
| 20260502203521 | 55 | 248 | 7.0 | 9.0 | 0.00 | 0.00 | 0.00 | 39 | 1016.2 |
| 20260502203018 | 55 | 225 | 7.0 | 12.0 | 0.00 | 0.00 | 0.00 | 39 | 1016.5 |
| 20260502202514 | 56 | 226 | 11.0 | 14.0 | 0.00 | 0.00 | 0.00 | 40 | 1016.3 |
| 20260502202013 | 55 | 255 | 9.0 | 15.0 | 0.00 | 0.00 | 0.00 | 42 | 1016.3 |
| 20260502201508 | 55 | 251 | 9.0 | 16.0 | 0.00 | 0.00 | 0.00 | 42 | 1016.6 |
| 20260502201005 | 55 | 239 | 12.0 | 14.0 | 0.00 | 0.00 | 0.00 | 40 | 1016.8 |
| 20260502200501 | 54 | 254 | 5.0 | 11.0 | 0.00 | 0.00 | 0.00 | 42 | 1016.9 |
| 20260502195959 | 55 | 335 | 4.0 | 7.0 | 0.00 | 0.00 | 0.00 | 38 | 1016.9 |
| 20260502195456 | 55 | 190 | 3.0 | 9.0 | 0.00 | 0.00 | 0.00 | 40 | 1016.9 |
| 20260502194952 | 54 | 304 | 6.0 | 11.0 | 0.00 | 0.00 | 0.00 | 43 | 1017.0 |
| 20260502194449 | 54 | 227 | 12.0 | 18.0 | 0.00 | 0.00 | 0.00 | 39 | 1017.2 |
| 20260502193944 | 55 | 217 | 8.0 | 11.0 | 0.00 | 0.00 | 0.00 | 42 | 1017.1 |
| 20260502193442 | 53 | 229 | 15.0 | 15.0 | 0.00 | 0.00 | 0.00 | 39 | 1017.4 |
| 20260502192938 | 53 | 165 | 3.0 | 10.0 | 0.00 | 0.00 | 0.00 | 40 | 1017.3 |
| 20260502192435 | 54 | 232 | 9.0 | 18.0 | 0.00 | 0.00 | 0.00 | 43 | 1017.6 |
| 20260502191932 | 54 | 84 | 1.0 | 12.0 | 0.00 | 0.00 | 0.00 | 39 | 1017.7 |
| 20260502191429 | 54 | 214 | 5.0 | 7.0 | 0.00 | 0.00 | 0.00 | 44 | 1017.7 |
| 20260502190927 | 54 | 280 | 5.0 | 6.0 | 0.00 | 0.00 | 0.00 | 42 | 1017.6 |
| 20260502190424 | 53 | 318 | 7.0 | 12.0 | 0.00 | 0.00 | 0.00 | 41 | 1017.9 |
| 20260502185920 | 53 | 260 | 6.0 | 11.0 | 0.00 | 0.00 | 0.00 | 39 | 1017.8 |
| 20260502185415 | 54 | 232 | 7.0 | 15.0 | 0.00 | 0.00 | 0.00 | 41 | 1018.0 |
| 20260502184913 | 54 | 186 | 1.0 | 5.0 | 0.00 | 0.00 | 0.00 | 45 | 1018.0 |
| 20260502184408 | 52 | 95 | 2.0 | 7.0 | 0.00 | 0.00 | 0.00 | 41 | 1018.0 |
| 20260502183905 | 53 | 275 | 6.0 | 15.0 | 0.00 | 0.00 | 0.00 | 46 | 1018.1 |
| 20260502183401 | 53 | 264 | 5.0 | 9.0 | 0.00 | 0.00 | 0.00 | 45 | 1018.2 |
| 20260502182856 | 52 | 302 | 3.0 | 10.0 | 0.00 | 0.00 | 0.00 | 41 | 1018.2 |
| 20260502182352 | 52 | 265 | 2.0 | 9.0 | 0.00 | 0.00 | 0.00 | 44 | 1018.4 |
| 20260502181848 | 51 | 226 | 11.0 | 17.0 | 0.00 | 0.00 | 0.00 | 46 | 1018.6 |
| 20260502181348 | 51 | 238 | 10.0 | 19.0 | 0.00 | 0.00 | 0.00 | 42 | 1018.7 |
| 20260502180845 | 51 | 244 | 6.0 | 9.0 | 0.00 | 0.00 | 0.00 | 42 | 1018.6 |
| 20260502180342 | 52 | 288 | 9.0 | 18.0 | 0.00 | 0.00 | 0.00 | 46 | 1018.7 |
| 20260502170301 | 49 | 310 | 5.0 | 10.0 | 0.00 | 0.00 | 0.00 | 43 | 1019.4 |
| 20260502164248 | 49 | 222 | 6.0 | 12.0 | 0.00 | 0.00 | 0.00 | 44 | 1019.6 |
| 20260502163744 | 50 | 250 | 2.0 | 4.0 | 0.00 | 0.00 | 0.00 | 48 | 1019.6 |
| 20260502163241 | 48 | 178 | 7.0 | 9.0 | 0.00 | 0.00 | 0.00 | 46 | 1019.6 |
| 20260502162738 | 48 | 227 | 7.0 | 9.0 | 0.00 | 0.00 | 0.00 | 46 | 1019.6 |
| 20260502162235 | 49 | 243 | 11.0 | 11.0 | 0.00 | 0.00 | 0.00 | 51 | 1019.7 |
| 20260502161732 | 48 | 315 | 9.0 | 9.0 | 0.00 | 0.00 | 0.00 | 48 | 1019.8 |
| 20260502161228 | 50 | 248 | 3.0 | 3.0 | 0.00 | 0.00 | 0.00 | 48 | 1019.9 |
| 20260502160726 | 49 | 26 | 3.0 | 6.0 | 0.00 | 0.00 | 0.00 | 47 | 1020.0 |
| 20260502160225 | 48 | 238 | 4.0 | 16.0 | 0.00 | 0.00 | 0.00 | 52 | 1020.0 |
| 20260502152149 | 46 | 300 | 5.0 | 8.0 | 0.00 | 0.00 | 0.00 | 47 | 1020.2 |
| 20260502151646 | 46 | 0 | 3.0 | 4.0 | 0.00 | 0.00 | 0.00 | 46 | 1020.1 |
| 20260502151143 | 48 | 180 | 0.0 | 3.0 | 0.00 | 0.00 | 0.00 | 47 | 1020.2 |
| 20260502150641 | 48 | 312 | 4.0 | 4.0 | 0.00 | 0.00 | 0.00 | 49 | 1020.2 |
| 20260502150137 | 48 | 102 | 4.0 | 4.0 | 0.00 | 0.00 | 0.00 | 48 | 1020.3 |
| 20260502130526 | 39 | 36 | 0.0 | 4.0 | 0.00 | 0.00 | 0.00 | 74 | 1021.3 |
| 20260502123509 | 38 | 4 | 2.0 | 4.0 | 0.00 | 0.00 | 0.00 | 76 | 1020.9 |
| 20260502123005 | 37 | 6 | 3.0 | 3.0 | 0.00 | 0.00 | 0.00 | 75 | 1021.0 |
| 20260502122502 | 38 | 354 | 3.0 | 3.0 | 0.00 | 0.00 | 0.00 | 75 | 1021.1 |
| 20260502121959 | 37 | 70 | 3.0 | 3.0 | 0.00 | 0.00 | 0.00 | 75 | 1020.9 |
| 20260502121456 | 37 | 16 | 3.0 | 3.0 | 0.00 | 0.00 | 0.00 | 75 | 1020.8 |
| 20260502120954 | 37 | 15 | 3.0 | 4.0 | 0.00 | 0.00 | 0.00 | 76 | 1021.2 |
| 20260502120450 | 37 | 2 | 3.0 | 5.0 | 0.00 | 0.00 | 0.00 | 77 | 1021.0 |
| 20260502115445 | 36 | 8 | 3.0 | 4.0 | 0.00 | 0.00 | 0.00 | 78 | 1021.0 |
| 20260502114941 | 36 | 350 | 2.0 | 3.0 | 0.00 | 0.00 | 0.00 | 79 | 1020.8 |
| 20260502114437 | 35 | 307 | 3.0 | 4.0 | 0.00 | 0.00 | 0.00 | 79 | 1020.9 |
| 20260502113935 | 35 | 312 | 4.0 | 4.0 | 0.00 | 0.00 | 0.00 | 80 | 1020.7 |
| 20260502113432 | 35 | 329 | 2.0 | 4.0 | 0.00 | 0.00 | 0.00 | 81 | 1020.8 |
| 20260502112931 | 35 | 327 | 3.0 | 5.0 | 0.00 | 0.00 | 0.00 | 81 | 1020.6 |
| 20260502112428 | 35 | 337 | 2.0 | 3.0 | 0.00 | 0.00 | 0.00 | 82 | 1020.7 |
| 20260502111925 | 35 | 350 | 2.0 | 3.0 | 0.00 | 0.00 | 0.00 | 82 | 1020.6 |
| 20260502111422 | 35 | 346 | 3.0 | 4.0 | 0.00 | 0.00 | 0.00 | 83 | 1020.6 |
| 20260502110920 | 34 | 343 | 3.0 | 4.0 | 0.00 | 0.00 | 0.00 | 84 | 1020.6 |
| 20260502110417 | 34 | 339 | 2.0 | 3.0 | 0.00 | 0.00 | 0.00 | 85 | 1020.5 |
| 20260502105914 | 34 | 341 | 4.0 | 4.0 | 0.00 | 0.00 | 0.00 | 85 | 1020.7 |
| 20260502105411 | 34 | 339 | 2.0 | 4.0 | 0.00 | 0.00 | 0.00 | 85 | 1020.6 |
| 20260502104910 | 33 | 328 | 3.0 | 4.0 | 0.00 | 0.00 | 0.00 | 85 | 1020.4 |
| 20260502104406 | 33 | 318 | 3.0 | 4.0 | 0.00 | 0.00 | 0.00 | 85 | 1020.4 |
| 20260502103904 | 34 | 322 | 2.0 | 4.0 | 0.00 | 0.00 | 0.00 | 84 | 1020.7 |
| 20260502103401 | 34 | 323 | 3.0 | 4.0 | 0.00 | 0.00 | 0.00 | 84 | 1020.4 |
| 20260502102858 | 34 | 346 | 2.0 | 3.0 | 0.00 | 0.00 | 0.00 | 84 | 1020.6 |
| 20260502102355 | 34 | 319 | 2.0 | 3.0 | 0.00 | 0.00 | 0.00 | 83 | 1020.4 |
| 20260502101852 | 34 | 334 | 2.0 | 3.0 | 0.00 | 0.00 | 0.00 | 82 | 1020.5 |
| 20260502101350 | 34 | 321 | 3.0 | 3.0 | 0.00 | 0.00 | 0.00 | 82 | 1020.4 |
| 20260502100848 | 34 | 337 | 0.0 | 2.0 | 0.00 | 0.00 | 0.00 | 82 | 1020.5 |
| 20260502100347 | 33 | 320 | 1.0 | 2.0 | 0.00 | 0.00 | 0.00 | 82 | 1020.4 |
| 20260502091321 | 33 | 294 | 1.0 | 2.0 | 0.00 | 0.00 | 0.00 | 80 | 1020.1 |
| 20260502090819 | 33 | 300 | 0.0 | 1.0 | 0.00 | 0.00 | 0.00 | 79 | 1020.4 |
| 20260502090315 | 34 | 312 | 2.0 | 3.0 | 0.00 | 0.00 | 0.00 | 77 | 1020.2 |
| 20260502071210 | 31 | 243 | 0.0 | 0.0 | 0.00 | 0.00 | 0.00 | 92 | 1020.2 |
| 20260502070709 | 31 | 194 | 0.0 | 2.0 | 0.00 | 0.00 | 0.00 | 92 | 1020.3 |
| 20260502070206 | 31 | 204 | 2.0 | 3.0 | 0.00 | 0.00 | 0.00 | 92 | 1020.2 |
| 20260502065704 | 32 | 203 | 1.0 | 2.0 | 0.00 | 0.00 | 0.00 | 92 | 1020.3 |
| 20260502065201 | 32 | 188 | 2.0 | 3.0 | 0.00 | 0.00 | 0.00 | 93 | 1020.4 |
| 20260502064700 | 31 | 191 | 2.0 | 3.0 | 0.00 | 0.00 | 0.00 | 93 | 1020.5 |
| 20260502064157 | 31 | 187 | 2.0 | 3.0 | 0.00 | 0.00 | 0.00 | 93 | 1020.3 |
| 20260502063655 | 31 | 172 | 2.0 | 3.0 | 0.00 | 0.00 | 0.00 | 93 | 1020.3 |
| 20260502063152 | 32 | 154 | 1.0 | 2.0 | 0.00 | 0.00 | 0.00 | 92 | 1020.3 |
| 20260502062649 | 32 | 157 | 0.0 | 1.0 | 0.00 | 0.00 | 0.00 | 92 | 1020.4 |
| 20260502062147 | 32 | 135 | 2.0 | 2.0 | 0.00 | 0.00 | 0.00 | 92 | 1020.4 |
| 20260502061645 | 32 | 164 | 3.0 | 3.0 | 0.00 | 0.00 | 0.00 | 92 | 1020.3 |
| 20260502061142 | 32 | 154 | 2.0 | 3.0 | 0.00 | 0.00 | 0.00 | 92 | 1020.1 |
| 20260502060642 | 32 | 200 | 0.0 | 3.0 | 0.00 | 0.00 | 0.00 | 92 | 1020.4 |
| 20260502060139 | 32 | 158 | 3.0 | 3.0 | 0.00 | 0.00 | 0.00 | 92 | 1020.2 |
| 20260502055637 | 32 | 158 | 3.0 | 4.0 | 0.00 | 0.00 | 0.00 | 92 | 1020.3 |
| 20260502055135 | 32 | 139 | 2.0 | 3.0 | 0.00 | 0.00 | 0.00 | 92 | 1020.4 |
| 20260502054634 | 32 | 166 | 3.0 | 4.0 | 0.00 | 0.00 | 0.00 | 92 | 1020.5 |
| 20260502054131 | 32 | 168 | 3.0 | 3.0 | 0.00 | 0.00 | 0.00 | 92 | 1020.3 |
| 20260502053628 | 32 | 160 | 3.0 | 3.0 | 0.00 | 0.00 | 0.00 | 92 | 1020.2 |
| 20260502053125 | 32 | 166 | 2.0 | 2.0 | 0.00 | 0.00 | 0.00 | 92 | 1020.5 |
| 20260502052623 | 32 | 154 | 2.0 | 3.0 | 0.00 | 0.00 | 0.00 | 92 | 1020.3 |
| 20260502052121 | 32 | 172 | 3.0 | 3.0 | 0.00 | 0.00 | 0.00 | 91 | 1020.5 |
| 20260502051619 | 32 | 151 | 2.0 | 3.0 | 0.00 | 0.00 | 0.00 | 91 | 1020.3 |
| 20260502051117 | 32 | 165 | 3.0 | 3.0 | 0.00 | 0.00 | 0.00 | 90 | 1020.5 |
| 20260502050613 | 33 | 161 | 3.0 | 3.0 | 0.00 | 0.00 | 0.00 | 89 | 1020.3 |
| 20260502050110 | 33 | 163 | 3.0 | 3.0 | 0.00 | 0.00 | 0.00 | 88 | 1020.3 |
| 20260502045606 | 33 | 162 | 3.0 | 4.0 | 0.00 | 0.00 | 0.00 | 87 | 1020.4 |
| 20260502045104 | 34 | 180 | 3.0 | 4.0 | 0.00 | 0.00 | 0.00 | 87 | 1020.2 |
| 20260502044600 | 34 | 188 | 3.0 | 3.0 | 0.00 | 0.00 | 0.00 | 87 | 1020.3 |
| 20260502044057 | 34 | 199 | 3.0 | 3.0 | 0.00 | 0.00 | 0.00 | 87 | 1020.3 |
| 20260502043554 | 34 | 194 | 2.0 | 3.0 | 0.00 | 0.00 | 0.00 | 88 | 1020.4 |
| 20260502043050 | 33 | 168 | 2.0 | 3.0 | 0.00 | 0.00 | 0.00 | 87 | 1020.4 |
| 20260502042545 | 33 | 154 | 3.0 | 4.0 | 0.00 | 0.00 | 0.00 | 86 | 1020.4 |
| 20260502042043 | 34 | 180 | 3.0 | 3.0 | 0.00 | 0.00 | 0.00 | 86 | 1020.4 |
| 20260502041541 | 34 | 195 | 3.0 | 3.0 | 0.00 | 0.00 | 0.00 | 86 | 1020.4 |
| 20260502041037 | 34 | 173 | 2.0 | 3.0 | 0.00 | 0.00 | 0.00 | 85 | 1020.4 |
| 20260502040534 | 35 | 140 | 1.0 | 2.0 | 0.00 | 0.00 | 0.00 | 84 | 1020.5 |
| 20260502040031 | 35 | 182 | 3.0 | 3.0 | 0.00 | 0.00 | 0.00 | 83 | 1020.6 |
| 20260502035527 | 35 | 173 | 2.0 | 3.0 | 0.00 | 0.00 | 0.00 | 84 | 1020.5 |
| 20260502035025 | 35 | 163 | 3.0 | 3.0 | 0.00 | 0.00 | 0.00 | 83 | 1020.4 |
| 20260502034522 | 36 | 148 | 3.0 | 4.0 | 0.00 | 0.00 | 0.00 | 82 | 1020.4 |
| 20260502034021 | 36 | 151 | 3.0 | 4.0 | 0.00 | 0.00 | 0.00 | 81 | 1020.3 |
| 20260502033519 | 36 | 154 | 3.0 | 3.0 | 0.00 | 0.00 | 0.00 | 80 | 1020.3 |
| 20260502033016 | 36 | 132 | 2.0 | 3.0 | 0.00 | 0.00 | 0.00 | 80 | 1020.5 |
| 20260502032511 | 35 | 142 | 2.0 | 4.0 | 0.00 | 0.00 | 0.00 | 82 | 1020.5 |
| 20260502032008 | 35 | 121 | 2.0 | 2.0 | 0.00 | 0.00 | 0.00 | 81 | 1020.3 |
| 20260502031506 | 35 | 146 | 2.0 | 3.0 | 0.00 | 0.00 | 0.00 | 83 | 1020.6 |
| 20260502031004 | 35 | 177 | 2.0 | 3.0 | 0.00 | 0.00 | 0.00 | 84 | 1020.6 |
| 20260502030502 | 36 | 174 | 3.0 | 3.0 | 0.00 | 0.00 | 0.00 | 85 | 1020.7 |
| 20260502030000 | 36 | 171 | 3.0 | 3.0 | 0.00 | 0.00 | 0.00 | 83 | 1020.4 |
| 20260502025457 | 36 | 157 | 1.0 | 2.0 | 0.00 | 0.00 | 0.00 | 82 | 1020.7 |
| 20260502024955 | 36 | 200 | 0.0 | 0.0 | 0.00 | 0.00 | 0.00 | 81 | 1020.5 |
| 20260502024452 | 37 | 200 | 0.0 | 0.0 | 0.00 | 0.00 | 0.00 | 80 | 1020.7 |
| 20260502023950 | 36 | 131 | 0.0 | 3.0 | 0.00 | 0.00 | 0.00 | 81 | 1020.5 |
| 20260502023448 | 37 | 66 | 0.0 | 0.0 | 0.00 | 0.00 | 0.00 | 80 | 1020.6 |
| 20260502022945 | 36 | 66 | 0.0 | 0.0 | 0.00 | 0.00 | 0.00 | 79 | 1020.4 |
| 20260502022441 | 36 | 66 | 0.0 | 0.0 | 0.00 | 0.00 | 0.00 | 78 | 1020.5 |
| 20260502021938 | 37 | 66 | 0.0 | 1.0 | 0.00 | 0.00 | 0.00 | 78 | 1020.3 |
| 20260502021436 | 37 | 145 | 0.0 | 2.0 | 0.00 | 0.00 | 0.00 | 79 | 1020.2 |
| 20260502020933 | 38 | 203 | 1.0 | 3.0 | 0.00 | 0.00 | 0.00 | 77 | 1020.3 |
| 20260502020431 | 38 | 164 | 2.0 | 2.0 | 0.00 | 0.00 | 0.00 | 71 | 1020.2 |
| 20260502015927 | 39 | 131 | 0.0 | 0.0 | 0.00 | 0.00 | 0.00 | 75 | 1020.2 |
| 20260502015425 | 39 | 106 | 0.0 | 0.0 | 0.00 | 0.00 | 0.00 | 74 | 1020.1 |
| 20260502014921 | 39 | 106 | 0.0 | 0.0 | 0.00 | 0.00 | 0.00 | 73 | 1020.2 |
| 20260502014419 | 39 | 98 | 0.0 | 1.0 | 0.00 | 0.00 | 0.00 | 74 | 1020.1 |
| 20260502013915 | 39 | 36 | 0.0 | 1.0 | 0.00 | 0.00 | 0.00 | 73 | 1020.3 |
| 20260502013410 | 39 | 117 | 0.0 | 0.0 | 0.00 | 0.00 | 0.00 | 73 | 1020.0 |
| 20260502012907 | 40 | 109 | 1.0 | 2.0 | 0.00 | 0.00 | 0.00 | 73 | 1019.9 |
| 20260502012405 | 40 | 65 | 0.0 | 2.0 | 0.00 | 0.00 | 0.00 | 72 | 1020.2 |
| 20260502011902 | 41 | 90 | 1.0 | 2.0 | 0.00 | 0.00 | 0.00 | 67 | 1020.1 |
| 20260502011358 | 40 | 96 | 2.0 | 2.0 | 0.00 | 0.00 | 0.00 | 67 | 1020.3 |
| 20260502010855 | 41 | 85 | 0.0 | 3.0 | 0.00 | 0.00 | 0.00 | 67 | 1020.3 |
| 20260502010352 | 41 | 71 | 2.0 | 3.0 | 0.00 | 0.00 | 0.00 | 67 | 1020.1 |
| 20260502005848 | 41 | 75 | 0.0 | 3.0 | 0.00 | 0.00 | 0.00 | 68 | 1020.2 |
| 20260502005346 | 41 | 29 | 0.0 | 3.0 | 0.00 | 0.00 | 0.00 | 66 | 1020.2 |
| 20260502004843 | 41 | 33 | 2.0 | 5.0 | 0.00 | 0.00 | 0.00 | 65 | 1019.9 |
| 20260502004340 | 42 | 65 | 2.0 | 3.0 | 0.00 | 0.00 | 0.00 | 65 | 1020.0 |
| 20260502003838 | 42 | 55 | 4.0 | 5.0 | 0.00 | 0.00 | 0.00 | 65 | 1020.0 |
| 20260502003334 | 41 | 7 | 1.0 | 4.0 | 0.00 | 0.00 | 0.00 | 66 | 1020.2 |
| 20260502002831 | 41 | 33 | 4.0 | 5.0 | 0.00 | 0.00 | 0.00 | 64 | 1020.2 |
| 20260502002328 | 41 | 3 | 4.0 | 6.0 | 0.00 | 0.00 | 0.00 | 64 | 1020.1 |
| 20260502001825 | 42 | 0 | 4.0 | 7.0 | 0.00 | 0.00 | 0.00 | 64 | 1020.3 |
| 20260502001323 | 41 | 10 | 2.0 | 6.0 | 0.00 | 0.00 | 0.00 | 64 | 1019.9 |
| 20260502000820 | 42 | 359 | 5.0 | 8.0 | 0.00 | 0.00 | 0.00 | 62 | 1020.1 |
| 20260502000318 | 42 | 84 | 1.0 | 3.0 | 0.00 | 0.00 | 0.00 | 63 | 1020.0 |
| 20260501235814 | 42 | 358 | 6.0 | 7.0 | 0.00 | 0.00 | 0.00 | 61 | 1020.2 |
| 20260501235310 | 42 | 31 | 8.0 | 8.0 | 0.00 | 0.00 | 0.00 | 61 | 1020.0 |
| 20260501234805 | 42 | 338 | 6.0 | 7.0 | 0.00 | 0.00 | 0.00 | 60 | 1020.0 |
| 20260501234303 | 42 | 74 | 0.0 | 5.0 | 0.00 | 0.00 | 0.00 | 62 | 1019.9 |
| 20260501233801 | 42 | 26 | 1.0 | 7.0 | 0.00 | 0.00 | 0.00 | 60 | 1019.9 |
| 20260501233258 | 42 | 18 | 5.0 | 11.0 | 0.00 | 0.00 | 0.00 | 59 | 1019.7 |
| 20260501232754 | 42 | 20 | 6.0 | 9.0 | 0.00 | 0.00 | 0.00 | 60 | 1019.8 |
| 20260501232251 | 42 | 4 | 7.0 | 8.0 | 0.00 | 0.00 | 0.00 | 62 | 1019.9 |
| 20260501231749 | 42 | 0 | 4.0 | 5.0 | 0.00 | 0.00 | 0.00 | 60 | 1019.9 |
| 20260501231247 | 42 | 8 | 7.0 | 11.0 | 0.00 | 0.00 | 0.00 | 60 | 1019.7 |
| 20260501230745 | 43 | 5 | 8.0 | 10.0 | 0.00 | 0.00 | 0.00 | 60 | 1019.8 |
| 20260501230243 | 43 | 3 | 2.0 | 7.0 | 0.00 | 0.00 | 0.00 | 59 | 1019.7 |
| 20260501225740 | 43 | 344 | 6.0 | 6.0 | 0.00 | 0.00 | 0.00 | 60 | 1019.8 |
| 20260501225237 | 42 | 9 | 5.0 | 9.0 | 0.00 | 0.00 | 0.00 | 58 | 1019.9 |
| 20260501224733 | 43 | 4 | 3.0 | 8.0 | 0.00 | 0.00 | 0.00 | 58 | 1019.8 |
| 20260501224231 | 43 | 346 | 5.0 | 11.0 | 0.00 | 0.00 | 0.00 | 57 | 1019.8 |
| 20260501223727 | 43 | 19 | 5.0 | 6.0 | 0.00 | 0.00 | 0.00 | 62 | 1019.6 |
| 20260501223224 | 43 | 349 | 6.0 | 8.0 | 0.00 | 0.00 | 0.00 | 60 | 1019.8 |
| 20260501222720 | 43 | 94 | 2.0 | 7.0 | 0.00 | 0.00 | 0.00 | 60 | 1019.7 |
| 20260501222217 | 43 | 29 | 4.0 | 5.0 | 0.00 | 0.00 | 0.00 | 60 | 1019.6 |
| 20260501221714 | 43 | 80 | 5.0 | 8.0 | 0.00 | 0.00 | 0.00 | 59 | 1019.7 |
| 20260501221211 | 43 | 18 | 0.0 | 9.0 | 0.00 | 0.00 | 0.00 | 60 | 1019.7 |
| 20260501220709 | 43 | 349 | 5.0 | 9.0 | 0.00 | 0.00 | 0.00 | 59 | 1019.5 |
| 20260501220206 | 44 | 352 | 7.0 | 7.0 | 0.00 | 0.00 | 0.00 | 62 | 1019.5 |
| 20260501215703 | 43 | 2 | 6.0 | 10.0 | 0.00 | 0.00 | 0.00 | 59 | 1019.6 |
| 20260501215158 | 44 | 332 | 9.0 | 11.0 | 0.00 | 0.00 | 0.00 | 62 | 1019.3 |
| 20260501214653 | 43 | 66 | 2.0 | 9.0 | 0.00 | 0.00 | 0.00 | 61 | 1019.3 |
| 20260501214148 | 43 | 344 | 6.0 | 10.0 | 0.00 | 0.00 | 0.00 | 60 | 1019.2 |
| 20260501213646 | 43 | 3 | 7.0 | 11.0 | 0.00 | 0.00 | 0.00 | 60 | 1019.2 |
| 20260501213141 | 43 | 49 | 4.0 | 8.0 | 0.00 | 0.00 | 0.00 | 55 | 1019.4 |
| 20260501212638 | 43 | 354 | 4.0 | 13.0 | 0.00 | 0.00 | 0.00 | 51 | 1019.2 |
| 20260501212135 | 43 | 349 | 9.0 | 11.0 | 0.00 | 0.00 | 0.00 | 54 | 1019.3 |
| 20260501211632 | 43 | 351 | 7.0 | 10.0 | 0.00 | 0.00 | 0.00 | 52 | 1019.2 |
| 20260501211130 | 42 | 350 | 7.0 | 12.0 | 0.00 | 0.00 | 0.00 | 52 | 1019.2 |
| 20260501210626 | 43 | 343 | 8.0 | 9.0 | 0.00 | 0.00 | 0.00 | 54 | 1019.4 |
| 20260501210123 | 43 | 349 | 10.0 | 12.0 | 0.00 | 0.00 | 0.00 | 55 | 1019.1 |